User: anonymous   Login
Location: Unspecified
(0.0000°N, 0.0000°E)
Time: 13:06:10
(UTC+00:00)
Language:

Vela 1A - Orbit

View from above orbital plane
View from above orbital plane
View from above satellite
View from above satellite

Ground track
Ground track

The orbit data is extracted from the following two-line orbital elements,

1   692U 63039C   20079.63435465 -.00001646  00000-0  00000+0 0  9999
2   692  18.0371 323.2326 5574512 242.7526 357.8281  0.22088152 45525
Epoch (UTC): 19 March 2020 15:13:28
Eccentricity: 0.5574512
inclination: 18.0371°
perigee height: 44780 km
apogee height: 173663 km
right ascension of ascending node: 323.2326°
argument of perigee: 242.7526°
revolutions per day: 0.22088152
mean anomaly at epoch: 357.8281°
orbit number at epoch: 4552

The dashed part of the orbit path shows where the satellite is in the earth's shadow,  

DLR